User: anonymous   Login
Location: Rancho Del Sol Observatory
(38.7214°N, 120.6350°W)
Time: 04:09:51
(UTC-07:00)
Language:

Cosmos 2221 Rocket - Orbit

View from above orbital plane
View from above orbital plane
View from above satellite
View from above satellite

Ground track
Ground track

The orbit data is extracted from the following two-line orbital elements,

1 22237U 92080B   17290.67002753  .00000065  00000-0  57850-5 0  9995
2 22237  82.5148   3.7875 0020253 160.9637 350.7762 14.78332171341533
Epoch (UTC): 17 October 2017 16:04:50
Eccentricity: 0.0020253
inclination: 82.5148°
perigee height: 620 km
apogee height: 649 km
right ascension of ascending node: 3.7875°
argument of perigee: 160.9637°
revolutions per day: 14.78332171
mean anomaly at epoch: 350.7762°
orbit number at epoch: 34153

The dashed part of the orbit path shows where the satellite is in the earth's shadow,  

DLR